EW7294 Weather Reports


Display with metric or nautical units.
time (UTC)temp
F
wind
direction
speed
MPH
gust
MPH
rain 1hr
in
rain 24hr
in
rain mn
in
humidity
%
barometer
mb
20260510043008 58 326 7.0 10.0 0.00 0.06 0.00 85 1001.3
20260510041501 59 293 2.0 4.0 0.00 0.06 0.00 81 1001.3
20260510040059 60 300 1.0 3.0 0.00 0.06 0.00 79 1001.3
20260510034557 60 115 0.0 3.0 0.00 0.06 0.06 79 1001.3
20260510033120 60 128 1.0 3.0 0.00 0.06 0.06 79 1001.3
20260510031619 60 111 1.0 6.0 0.00 0.06 0.06 78 1001.3
20260510030054 60 96 3.0 8.0 0.00 0.06 0.06 77 1001.3
20260510024555 60 243 1.0 6.0 0.00 0.06 0.06 77 1001.3
20260510023053 60 171 1.0 7.0 0.00 0.06 0.06 78 1001.3
20260510021552 59 231 0.0 6.0 0.00 0.06 0.06 81 1001.3
20260510020052 59 135 1.0 7.0 0.00 0.06 0.06 82 1001.3
20260510014605 59 213 2.0 10.0 0.00 0.06 0.06 82 1001.3
20260510013050 59 204 2.0 8.0 0.00 0.06 0.06 84 1001.3
20260510011557 58 266 3.0 9.0 0.00 0.06 0.06 86 1001.3
20260510010100 57 141 3.0 9.0 0.00 0.06 0.06 91 1001.3
20260510004555 57 252 1.0 8.0 0.00 0.11 0.06 97 1001.3
20260510003057 56 202 4.0 12.0 0.00 0.11 0.06 97 1001.3
20260510001547 56 203 3.0 9.0 0.00 0.11 0.06 97 1001.3
20260510000052 56 135 3.0 9.0 0.00 0.11 0.06 97 1001.3
20260509234646 55 195 5.0 11.0 0.03 0.11 0.06 98 1001.3
20260509233045 55 180 2.0 14.0 0.06 0.11 0.06 97 1001.3
20260509231545 55 117 2.0 5.0 0.06 0.11 0.06 97 1001.3
20260509230044 54 245 1.0 7.0 0.06 0.11 0.06 97 1001.3
20260509224542 53 295 10.0 15.0 0.03 0.08 0.03 96 1001.3
20260509223047 55 295 19.0 31.0 0.00 0.05 0.00 91 1001.3
20260509221540 70 135 4.0 14.0 0.00 0.05 0.00 55 1001.3
20260509220053 70 216 5.0 15.0 0.00 0.05 0.00 54 1001.3
20260509214541 70 223 6.0 16.0 0.00 0.05 0.00 54 1001.3
20260509213040 70 235 4.0 16.0 0.00 0.05 0.00 56 1001.3
20260509211542 70 122 2.0 11.0 0.00 0.05 0.00 56 1001.3
20260509210035 70 229 3.0 14.0 0.00 0.05 0.00 55 1001.3
20260509204542 70 244 4.0 13.0 0.00 0.05 0.00 56 1001.3
20260509203036 71 91 3.0 15.0 0.00 0.05 0.00 56 1001.3
20260509201532 71 245 4.0 13.0 0.00 0.05 0.00 58 1001.3
20260509200038 70 217 4.0 12.0 0.00 0.05 0.00 56 1001.3
20260509194539 71 229 7.0 15.0 0.00 0.05 0.00 56 1001.3
20260509193037 71 222 5.0 10.0 0.00 0.05 0.00 56 1001.3
20260509191527 69 221 5.0 13.0 0.00 0.05 0.00 58 1001.3
20260509190028 70 215 4.0 12.0 0.00 0.05 0.00 56 1001.3
20260509184532 69 92 3.0 10.0 0.00 0.05 0.00 58 1001.3
20260509183029 69 143 4.0 13.0 0.00 0.05 0.00 58 1001.3
20260509181522 69 235 4.0 12.0 0.00 0.05 0.00 60 1001.3
20260509180017 64 268 1.0 5.0 0.00 0.05 0.00 77 1001.3
20260509174513 62 229 1.0 4.0 0.00 0.05 0.00 79 1001.3
20260509173012 62 274 1.0 4.0 0.00 0.05 0.00 79 1001.3
20260509171513 60 284 1.0 3.0 0.00 0.05 0.00 83 1001.3
20260509170011 60 296 1.0 3.0 0.00 0.05 0.00 84 1001.3
20260509164510 59 292 1.0 3.0 0.00 0.05 0.00 85 1001.3
20260509163017 61 295 3.0 4.0 0.00 0.05 0.00 79 1001.3
20260509161507 60 195 1.0 6.0 0.00 0.05 0.00 85 1001.3
20260509160004 58 288 1.0 3.0 0.00 0.05 0.00 88 1001.3
20260509154503 58 295 1.0 2.0 0.00 0.05 0.00 88 1001.3
20260509153007 57 287 0.0 3.0 0.00 0.05 0.00 88 1001.3
20260509151503 57 290 0.0 2.0 0.00 0.05 0.00 89 1001.3
20260509150001 58 280 2.0 4.0 0.00 0.05 0.00 88 1001.3
20260509144504 58 273 1.0 5.0 0.00 0.05 0.00 87 1001.3
20260509143102 58 244 1.0 4.0 0.00 0.05 0.00 87 1001.3
20260509141559 59 276 1.0 7.0 0.00 0.05 0.00 86 1001.3
20260509140113 58 273 1.0 6.0 0.00 0.05 0.00 86 1001.3
20260509134556 58 237 0.0 6.0 0.00 0.05 0.00 86 1001.3
20260509133101 57 98 1.0 4.0 0.00 0.05 0.00 87 1001.3
20260509131558 57 206 2.0 6.0 0.00 0.05 0.00 88 1001.3
20260509130101 56 134 2.0 8.0 0.00 0.05 0.00 88 1001.3
20260509124557 56 243 1.0 6.0 0.00 0.05 0.00 89 1001.3
20260509123049 56 236 1.0 6.0 0.00 0.05 0.00 90 1001.3
20260509121559 55 141 1.0 5.0 0.00 0.05 0.00 90 1001.3
20260509120045 55 227 1.0 5.0 0.00 0.05 0.00 91 1001.3
20260509114545 54 120 0.0 3.0 0.00 0.05 0.00 92 1001.3
20260509113050 54 122 0.0 3.0 0.00 0.05 0.00 92 1001.3
20260509111542 54 125 0.0 2.0 0.00 0.05 0.00 92 1001.3
20260509110041 54 110 0.0 4.0 0.00 0.05 0.00 92 1001.3
20260509104541 54 114 0.0 4.0 0.00 0.05 0.00 92 1001.3
20260509103040 54 120 0.0 2.0 0.00 0.05 0.00 92 1001.3
20260509101543 54 111 0.0 3.0 0.00 0.05 0.00 92 1001.3
20260509100039 53 119 0.0 2.0 0.00 0.05 0.00 92 1001.3
20260509094538 54 119 0.0 2.0 0.00 0.05 0.00 91 1001.3
20260509093038 54 108 0.0 1.0 0.00 0.05 0.00 91 1001.3
20260509091537 54 96 0.0 2.0 0.00 0.05 0.00 91 1001.3
20260509090039 54 238 0.0 3.0 0.00 0.05 0.00 90 1001.3
20260509084541 54 120 1.0 5.0 0.00 0.05 0.00 90 1001.3
20260509083046 54 245 0.0 5.0 0.00 0.05 0.00 90 1001.3
20260509081535 54 158 0.0 5.0 0.00 0.05 0.00 90 1001.3
20260509080034 54 183 1.0 5.0 0.00 0.05 0.00 90 1001.3
20260509074534 54 252 0.0 3.0 0.00 0.05 0.00 90 1001.3
20260509073034 54 176 0.0 5.0 0.00 0.05 0.00 90 1001.3
20260509071532 54 84 1.0 4.0 0.00 0.05 0.00 90 1001.3
20260509070035 54 231 0.0 4.0 0.00 0.05 0.00 90 1001.3
20260509064530 54 158 0.0 5.0 0.00 0.05 0.00 89 1001.3
20260509063032 54 168 1.0 7.0 0.00 0.05 0.00 89 1001.3
20260509061533 54 87 2.0 6.0 0.00 0.05 0.00 89 1001.3
20260509060027 54 190 1.0 5.0 0.00 0.05 0.00 89 1001.3
20260509054527 54 155 1.0 6.0 0.00 0.05 0.00 88 1001.3
20260509053030 54 147 1.0 8.0 0.00 0.05 0.00 88 1001.3
20260509051525 54 131 0.0 4.0 0.00 0.05 0.00 88 1001.3
20260509050028 54 257 1.0 6.0 0.00 0.05 0.00 88 1001.3
20260509044524 54 152 0.0 4.0 0.00 0.05 0.00 88 1001.3